Other Public Products
Issued by NWS Grand Forks, ND

Home | Current Version | Previous Version | Graphics & Text | Print | Product List | Glossary On
Versions: 1 2 3 4 5 6 7 8 9 10 11 12 13 14 15 16 17 18 19 20 21 22 23 24 25 26 27 28 29 30 31 32 33 34 35 36 37 38 39 40 41 42 43 44 45 46 47 48 49 50
000
FPUS83 KFGF 200110
OPUFGF
PRAIRIE TO PINES WEATHER ROUNDUP
NATIONAL WEATHER SERVICE EASTERN NORTH DAKOTA/GRAND FORKS ND
800 PM CDT TUE AUG 19 2014

 **SATELLITE DATA USED TO AUGMENT SKY COVER AT AUTOMATED STATIONS**
 *****  WEATHER ACROSS EASTERN NORTH DAKOTA  *****

CITY           SKY/WX    TMP DP  RH WIND       PRES   REMARKS
GRAND FORKS    CLEAR     77  65  66 E6        29.73R
GRAND FORKS AF CLEAR     77  68  73 E6        29.75R
GRAND CITY NWS   N/A     73 N/A N/A E5          N/A
BUXTON         NOT AVBL
DEVILS LAKE    CLEAR     79  63  57 SE6       29.72S
FARGO          CLEAR     76  66  71 E6        29.73F
WAHPETON ARPT  PTCLDY    73  63  68 E5        29.75S
$$

 *****  WEATHER ACROSS CENTRAL AND WESTERN NORTH DAKOTA  *****

CITY           SKY/WX    TMP DP  RH WIND       PRES   REMARKS
JAMESTOWN      MOCLDY    76  67  73 CALM      29.74S
BISMARCK       CLEAR     79  66  64 E6        29.72S
MINOT          CLEAR     80  57  45 SE8       29.70S
MINOT AFB      CLEAR     80  63  57 E8        29.69F
GARRISON         N/A     79  63  57 E7        29.71S
WILLISTON      CLEAR     88  56  33 SE10      29.64F
DICKINSON      PTCLDY    79  63  57 SE8       29.70S
HETTINGER      MOCLDY    81  57  43 SE9       29.73S
$$

 *****  OTHER OBSERVATIONS NORTHEAST NORTH DAKOTA  *****

CITY           SKY/WX    TMP DP  RH WIND       PRES   REMARKS
WALHALLA         N/A     75  68  78 E6          N/A
LANGDON        FAIR      73  66  78 SE7       29.75R
CAVALIER       FAIR      77  64  65 SE3       29.73R
GRAFTON        FAIR      75  66  73 E6        29.73S
CANDO          FAIR      73  68  83 SE5       29.74S
FORT TOTTEN    NOT AVBL
ROLLA            N/A     72  61  68 S6        29.75S
RUGBY          NOT AVBL
 ***** THE ABOVE OBSERVATIONS ARE NON NWS ARE NOT QUALITY
        CONTROLLED AND MAY MIS-REPORT RAIN FOR SNOW...
$$

 *****  OTHER OBSERVATIONS SOUTHEAST NORTH DAKOTA *****

CITY           SKY/WX    TMP DP  RH WIND       PRES   REMARKS
COOPERSTOWN    NOT AVBL
VALLEY CITY    FAIR      77  66  69 CALM      29.75S
OAKES          NOT AVBL
GWINNER        NOT AVBL
SHEYENNE NWR     N/A     75  68  79 E5        29.95S
BUFFALO        NOT AVBL
WYNDMERE       NOT AVBL
 ***** THE ABOVE OBSERVATIONS ARE NON NWS ARE NOT QUALITY
       CONTROLLED AND MAY MIS-REPORT RAIN FOR SNOW...
$$

  *****  WEATHER ACROSS NORTHERN MINNESOTA  *****

CITY           SKY/WX    TMP DP  RH WIND       PRES   REMARKS
FLAG ISLAND    CLEAR     72  61  68 CALM      29.77R
WARROAD        CLEAR     72  63  73 E6        29.78S
ROSEAU         CLEAR     72  63  73 E8        29.77S
HALLOCK        CLEAR     75  66  73 CALM      29.73S
THF RVR FALLS  CLEAR     73  61  64 CALM      29.76S
HALSTAD          N/A     75  63  64 E2          N/A
FOSSTON        CLEAR     72  63  73 CALM      29.77S
BAUDETTE       CLEAR     69  62  78 NE3       29.78R
WASKISH        PTCLDY    70  63  78 CALM      29.78R
CROOKSTON      CLEAR     77  63  61 CALM      29.75S
$$
  *****  WEATHER ACROSS CENTRAL AND WEST MINNESOTA  *****

CITY           SKY/WX    TMP DP  RH WIND       PRES   REMARKS
BEMIDJI        CLEAR     71  61  71 CALM      29.78S
PARK RAPIDS    CLEAR     74  59  59 N6        29.77S
WADENA         CLEAR     72  64  78 CALM      29.77R
DETROIT LAKES  CLEAR     73  63  68 CALM      29.79R
MOORHEAD       CLEAR     77  70  78 E3        29.75S
FERGUS FALLS   CLEAR     75  61  60 CALM      29.75S
ELBOW LAKE     FAIR      74  64  70 CALM      29.76S
MORRIS MN      CLEAR     75  66  73 CALM      29.76R
STAPLES        PTCLDY    73  63  68 CALM      29.77R
WHEATON        CLEAR     73  63  68 NE3       29.77S
$$
  *****  WEATHER ELSEWHERE ACROSS MINNESOTA  *****

CITY           SKY/WX    TMP DP  RH WIND       PRES   REMARKS
DULUTH         MOCLDY    66  59  78 NE7       29.78R
INTRNTL FALLS  CLEAR     67  60  78 NE3       29.78S
ELY            CLOUDY    63  59  88 CALM      29.80R
CLOQUET        CLOUDY    64  61  88 E3        29.78R
BRAINERD       CLEAR     71  64  78 NE3       29.77R
HIBBING        MOCLDY    68  60  75 NE3       29.79R
ALEXANDRIA     CLEAR     74  63  68 N3        29.79R
SAINT CLOUD    CLEAR     75  66  73 CALM      29.75R
MINNEAPOLIS    PTCLDY    74  64  71 CALM      29.75R
$$

  *****  WEATHER ACROSS SOUTH DAKOTA  *****

CITY           SKY/WX    TMP DP  RH WIND       PRES   REMARKS
SIOUX FALLS    PTCLDY    77  64  64 CALM      29.79R
BROOKINGS      NOT AVBL
WATERTOWN      CLEAR     76  62  62 CALM      29.78S
HURON          PTCLDY    79  63  57 E7        29.75S
SISSETON         N/A     76  68  76 SE3       29.74S
ABERDEEN       CLEAR     74  67  78 S5        29.75S
MITCHELL       CLEAR     77  65  66 E6        29.76S
PIERRE         PTCLDY    84  60  44 SE10      29.71S
MOBRIDGE       PTCLDY    79  64  60 E9        29.71S
RAPID CITY     PTCLDY    75  62  64 N6        29.73F
$$

  *****  SOME WEATHER IN NEARBY STATES *****

CITY           SKY/WX    TMP DP  RH WIND       PRES   REMARKS
GLASGOW MT     SUNNY     91  43  18 CALM      29.59S
GREAT FALLS MT MOSUNNY   85  37  18 W5        29.68F
CHEYENNE WY    CLEAR     73  45  36 NW9       29.96S
SCOTTSBLUFF NE CLOUDY    75  57  53 SE9       29.82R
OMAHA NE       PTCLDY    82  66  58 E5        29.79R
DES MOINES IA  PTCLDY    81  65  58 W3        29.79R
DAVENPORT IA   CLEAR     73  65  75 W6        29.78R
CHICAGO IL     LGT RAIN  76  65  68 W7        29.72R
EAU CLAIRE WI  CLOUDY    69  66  90 N3        29.74S
LA CROSSE WI   PTCLDY    75  64  68 NW3       29.73S
$$

  *****  SOME NATIONAL WEATHER *****

CITY           SKY/WX    TMP DP  RH WIND       PRES   REMARKS
LA GUARDIA NY  PTCLDY    74  63  68 S10       29.91R
RALEIGH NC     MOCLDY    77  71  82 CALM      29.88R
ATLANTA GA     MOCLDY    77  66  68 CALM      29.93S
NEW ORLEANS LA MOCLDY    83  75  77 S7        29.94F HX  90
OKLAHOMA CITY  PTCLDY    87  67  51 S10       29.82F HX  90
ALBUQUERQUE NM MOCLDY    82  46  28 W21G26    29.95S
SALT LAKE CITY PTSUNNY   72  55  55 SE8       29.87R
LOS ANGELES CA PTSUNNY   70  61  73 W12       29.85F
BOISE ID       PTSUNNY   85  42  22 NW17G29   29.71R
SEATTLE WA     MOSUNNY   76  61  59 S14       29.80S
$$

*** WEATHER ACROSS MANITOBA...SASKATCHEWAN AND ONTARIO ***
                ***ONTARIO***

CITY           SKY/WX    TMP DP  RH WIND       PRES   REMARKS
GERALDTON      CLOUDY    64  59  82 E6        29.81R
THUNDER BAY    DRIZZLE   61  59  94 W2        29.78R
SIOUX LOOKOUT  PTCLDY    64  61  88 CALM      29.79R
TORONTO        MOCLDY    66  55  68 E6        29.86S
BIG TROUT LK   CLEAR     72  55  56 SE5       29.79R
PICKLE LAKE    PTCLDY    70  54  56 E7        29.80R
DRYDEN         CLEAR     66  61  82 W5        29.80R
KENORA         PTCLDY    68  61  77 SE5       29.80S
$$
                *** MANITOBA***

CITY           SKY/WX    TMP DP  RH WIND       PRES   REMARKS
BRANDON        MOCLDY    73  61  64 E8        29.72S
DAUPHIN        CLEAR     72  66  83 SE8       29.69S
ISLAND LAKE    PTCLDY    77  63  61 SE7       29.73R
PILOT MOUND      N/A     73  64  73 E6          N/A
THE PAS        CLOUDY    79  64  61 SE3       29.63R SMOKE
THOMPSON       MOCLDY    68  66  94 E3        29.63
WINNIPEG       PTCLDY    75  63  64 SE8       29.74S
LYNN LAKE      LGT RAIN  59  55  88 MISG      29.69R
CHURCHILL      CLOUDY    46  41  81 SE23G29   29.81R
GILLAM         PTCLDY    66  61  82 SE5       29.69R
$$
                ***SASKATCHEWAN***

CITY           SKY/WX    TMP DP  RH WIND       PRES   REMARKS
ESTEVAN        PTCLDY    79  61  53 SE12      29.69S
KINDERSLEY     NOT AVBL
LLOYDMINSTER   PTSUNNY   70  55  60 NW3       29.66S
PRINCE ALBERT  TSTM      63  61  94 CALM      29.63F
REGINA         MOCLDY    77  63  61 SE12      29.63R


USA.gov is the U.S. government's official web portal to all federal, state and local government web resources and services.